Вернуться в каталог

CSTP-4.2

АктивенНаукаSSO
NORAD 64883·PAYLOAD·🇷🇺 Russia
Это название спутника еще не подтверждено официальными источниками.

Запущен Jul 25, 2025 с Vostochny Cosmodrome

Loading…

Ближайшие Пролёты (ближайшие 24 часа)

TLE

СвежийSource: Space-Track

Эпоха: Sep 14, 2026, 14:50 UTC

1 64883U 25155H   26257.61843336  .00007369  00000-0  24943-3 0  9993
2 64883  97.4682 226.5392 0006072 199.6339 160.4669 15.30885369 94431

Отслеживайте CSTP-4.2 в реальном времени с AllMySat

Download on the App Store